Location: Little Bennett Regional Park
(39.2840°N, 77.2890°W)
Time: 03:21:41
(UTC-04:00)

Daily predictions for brighter satellites

Satellite Brightness Start Highest point End
(mag) Time Altitude Azimuth Time Altitude Azimuth Time Altitude Azimuth
ATLAS CENTAUR R/B 4.2 00:16:15 76° W 00:16:56 79° NW 00:40:40 10° NE
Cosmos 2278 Rocket 4.3 00:23:52 10° NNW 00:25:52 22° N 00:25:52 22° N
ATLAS 3B R/B 4.2 00:38:23 30° NE 00:38:23 30° NE 00:41:49 10° NE
Cosmos 2219 Rocket 4.5 01:17:15 19° N 01:17:15 19° N 01:19:01 10° N
SL-16 R/B 4.4 01:37:58 20° NNE 01:37:58 20° NNE 01:39:40 10° NNE
Cosmos 2237 Rocket 4.4 01:39:41 20° N 01:39:41 20° N 01:41:39 10° N
CZ-4C R/B 4.5 01:40:57 19° NE 01:40:57 19° NE 01:42:39 10° NE
Cosmos 2333 Rocket 4.4 01:45:35 20° NNW 01:45:35 20° NNW 01:47:45 10° N
ATLAS 3B R/B 4.2 02:25:38 28° NW 02:25:46 28° NW 02:32:00 10° NNE
Resurs 1-4 Rocket 4.4 02:41:14 10° NE 02:43:54 16° E 02:43:54 16° E
CZ-3A R/B 3.9 02:45:24 65° SSE 02:46:33 69° ESE 03:31:34 10° NE
Cosmos 2369 Rocket 3.8 02:49:18 10° NNW 02:52:13 30° N 02:52:13 30° N
Cosmos 1943 Rocket 3.8 03:01:16 10° N 03:06:13 30° ENE 03:08:54 21° E
SL-16 R/B 4.5 03:19:50 14° NW 03:19:50 14° NW 03:21:51 10° NNW
USA 234 3.8 03:15:36 10° ENE 03:21:30 47° ESE 03:21:30 47° ESE
CZ-4C R/B 4.1 03:26:08 20° NW 03:26:08 20° NW 03:30:31 10° N
IRS-1D 4.3 03:26:58 10° NNE 03:31:25 51° ENE 03:31:25 51° ENE
ARIANE 5 R/B 3.1 03:30:33 10° NNE 03:34:53 55° NE 03:34:53 55° NE
ATLAS 5 CENTAUR R/B 2.7 03:38:58 47° NNE 03:38:58 47° NNE 03:42:43 10° NNE
SL-16 R/B 2.6 03:41:16 60° SE 03:42:19 72° ENE 03:48:30 10° N
Cosmos 1733 Rocket 4.5 03:38:44 10° N 03:41:43 36° NNE 03:41:43 36° NNE
Cosmos 1709 Rocket 3.9 03:39:19 10° N 03:45:42 87° E 03:45:50 86° SE
CENTAUR R/B 2.5 03:47:14 69° SE 03:47:30 70° ESE 03:54:14 10° NE
ADEOS 4.2 03:49:32 10° N 03:53:28 46° NNW 03:53:28 46° NNW
CZ-2D R/B 2.0 03:55:43 10° NNE 04:00:54 84° ENE 04:00:54 84° ENE
Cosmos 2074 Rocket 4.5 04:03:04 10° N 04:09:12 58° E 04:15:20 10° SSE
Cosmos 1908 Rocket 4.4 04:10:30 10° N 04:14:45 47° E 04:16:29 30° SE
Cosmos 2184 Rocket 4.4 04:10:23 10° N 04:16:44 65° E 04:23:01 10° SSE
EO 1 Del DPAF 4.2 04:19:42 42° N 04:19:42 42° N 04:22:21 10° NNW
SL-27 R/B 3.8 04:20:01 37° N 04:20:01 37° N 04:22:20 10° NNE
UNKNOWN OBJECT B 3.5 04:19:15 10° N 04:21:58 46° N 04:21:58 46° N
Resurs 1-4 Rocket 2.1 04:19:32 10° N 04:24:42 57° WNW 04:24:59 56° W
Cosmos 1862 3.5 04:25:26 10° N 04:29:25 67° E 04:30:09 53° SE
Okean O Rocket 2.2 04:26:15 10° NNE 04:30:40 55° E 04:32:24 33° SSE
Cosmos 2221 Rocket 4.2 04:29:08 31° SSE 04:30:57 53° E 04:35:16 10° NNE
Cosmos 1703 Rocket 4.0 04:30:10 37° SSE 04:31:44 61° E 04:36:10 10° NNE
Cosmos 1869 4.5 04:33:54 31° NW 04:33:54 31° NW 04:36:25 10° N
ADEOS II 4.4 04:29:31 10° NE 04:33:28 21° E 04:37:24 10° SE
COSMOS 2406 3.2 04:37:42 46° SW 04:39:24 71° WNW 04:45:10 10° NNE
Cosmos 1455 4.2 04:43:33 18° NW 04:43:33 18° NW 04:45:06 10° NNW
Sich 1 Rocket 3.5 04:42:02 10° NNW 04:46:22 58° W 04:46:53 54° SW
CZ-4B R/B 3.4 04:43:02 10° NNE 04:48:20 67° ESE 04:52:34 16° S
Cosmos 1408 2.5 04:44:35 10° N 04:48:21 75° W 04:48:48 64° SSW
MOZ.5/SAFIR/RUBIN 5/SL-8 3.6 04:45:07 10° SSE 04:49:45 89° WSW 04:54:25 10° NNW
Cosmos 1943 Rocket 2.6 04:44:49 10° NW 04:50:00 38° WSW 04:50:12 38° WSW
Cosmos 2285 Rocket 3.9 04:43:52 10° NNW 04:50:16 73° WSW 04:56:36 10° S
Cosmos 1933 3.4 04:51:40 52° WSW 04:52:05 55° W 04:56:08 10° N
CZ-4B DEB 4.4 04:47:08 10° NNE 04:52:36 68° ESE 04:57:35 12° S
Cosmos 407 Rocket 3.6 04:51:34 23° S 04:54:53 75° ESE 05:00:10 10° NNE
IRS-1C Rocket 4.0 04:49:37 10° N 04:54:55 80° WNW 04:58:06 25° SSW
Okean 1-7 3.1 04:54:53 20° S 04:57:48 75° E 05:02:10 10° N
SeaSat 1 2.4 04:53:14 10° SSE 04:58:09 88° ENE 05:03:07 10° NNW
Atlas Centaur 2 2.9 04:59:34 21° S 05:00:19 22° SSE 05:03:58 10° ESE
USA 234 3.7 04:58:35 10° NE 05:04:52 50° NW 05:08:50 23° W
GPS 2-05 Rocket1 3.5 05:05:26 35° S 05:05:50 37° S 05:08:57 10° ESE
CZ-4B R/B 2.6 05:02:20 10° N 05:06:03 85° WNW 05:08:16 24° SSW
Aureole 3 Rocket 3.7 05:05:11 10° SSW 05:11:57 68° W 05:16:44 10° N
ARIANE 5 R/B 4.2 05:11:11 10° NNW 05:14:18 16° WNW 05:15:13 16° WNW
Cosmos 1825 2.9 05:11:36 10° NNW 05:14:59 32° W 05:15:22 31° WSW
Cosmos 1656 Rocket 3.7 05:09:56 10° NNW 05:15:08 49° WSW 05:20:20 10° S
Okean 2 Rocket 3.0 05:14:31 10° NNW 05:19:01 68° W 05:23:30 10° S
PSLV R/B 4.5 05:16:08 10° N 05:19:35 34° WNW 05:20:51 27° WSW
Abrixas rocket 2.6 05:19:35 12° NW 05:22:36 64° NNE 05:25:56 10° ESE
ATLAS 5 CENTAUR R/B 4.0 05:20:32 10° WNW 05:23:10 15° NW 05:26:05 10° N
ADEOS Rocket 3.7 05:17:28 10° NNE 05:25:18 81° ESE 05:32:56 10° S
Nadezhda 1 Rocket 4.4 05:21:21 15° SW 05:26:14 45° WNW 05:32:18 10° N
SL-16 R/B 3.9 05:26:22 16° W 05:26:29 16° W 05:30:12 10° NW
PSLV R/B 3.7 05:28:59 23° W 05:30:42 43° SSW 05:33:57 10° SE
Cosmos 1782 Rocket 4.1 05:28:20 10° NNW 05:32:20 36° W 05:36:19 10° SSW
Meteor 1-31 Rocket 4.0 05:34:13 10° NNE 05:37:52 43° E 05:41:31 10° S
AVUM R/B 4.5 05:37:18 19° W 05:38:43 26° WNW 05:41:36 10° N
CENTAUR R/B 3.9 05:34:26 13° W 05:38:51 26° NW 05:44:35 10° NNE
CZ-2D R/B 4.0 05:38:18 10° NW 05:40:17 12° WNW 05:42:14 10° W
COSMOS 2487 3.7 05:44:02 16° WSW 05:46:06 25° WNW 05:49:08 10° N
Cosmos 2181 Rocket 4.1 05:40:20 10° SSW 05:46:45 71° W 05:53:08 10° N
BREEZE-M DEB (TANK) 3.9 05:45:01 15° W 05:47:06 45° NNW 05:52:36 10° NE
Meteor 1-25 Rocket 4.2 05:41:44 10° N 05:47:19 85° W 05:52:53 10° S
Meteor 1-20 Rocket 4.3 05:46:03 10° N 05:51:49 89° E 05:57:37 10° S
Cosmos 1295 Rocket 4.4 05:47:22 10° N 05:53:29 77° W 05:59:39 10° S
COSMO-SKYMED 1 4.4 05:52:30 10° SE 05:56:30 37° ENE 06:00:30 10° N
Thor Agena Rocket 4.1 05:53:55 10° SSW 05:58:34 34° W 06:03:19 10° NNW
Cosmos 1023 Rocket 4.4 05:55:53 10° SSW 06:00:56 71° WNW 06:06:04 10° NNE
Cosmos 1954 Rocket 4.3 05:56:38 10° SW 06:01:36 47° WNW 06:06:39 10° N
Cosmos 1242 Rocket 4.3 05:59:31 10° SSE 06:02:58 38° E 06:06:27 10° NNE
USA 129 3.3 06:04:11 10° WNW 06:04:11 10° WNW 06:04:13 10° WNW
Cosmos 1356 3.4 06:02:19 10° NNW 06:05:51 68° W 06:09:21 10° S
Okean O Rocket 3.5 06:04:13 10° NNW 06:06:33 14° WNW 06:08:51 10° W
Cosmos 1400 Rocket 2.9 06:05:44 10° N 06:09:38 81° E 06:13:31 10° S
Meteor PRIRODA 4.2 06:06:25 10° N 06:09:59 40° WNW 06:13:30 10° SW
USA 229 DEB 4.2 06:03:28 10° SSW 06:10:17 66° ESE 06:17:12 10° NE
USA 229 4.2 06:03:34 10° SSW 06:10:23 66° ESE 06:17:17 10° NE
Cosmos 2278 3.7 06:05:04 10° NNW 06:10:44 67° WSW 06:16:23 10° S
